Flag for U.S.A. Weather past 2 weeks in Helena, Montana, U.S.A.

Now
22 °F

Cold.


Feels Like: N/A
Forecast: 5 / 20 °F
Wind: N/A

Location: Helena Regional Airport

Current Time: Feb 27, 2015 at 5:52:50 PM

Latest Report: Feb 27, 2015 at 4:53 PM


Visibility: 10 mi

Pressure: 30.20 "Hg

Humidity: 62%

Dew point: 11 °F

Location of HelenaLocation

Historic Weather in Helena — Graph

°F

Helena temperature yesterday

Maximum temperature yesterday: 25 °F (at 1:53 PM)
Minimum temperature yesterday: 13 °F (at 10:53 PM)
Average temperature yesterday: 18 °F

Past Weeks' High & Low Weather Summary

 TemperatureHumidityPressure
High61 °F (Feb 13, 3:53 PM)96% (Feb 20, 6:56 PM)30.76 "Hg (Feb 20, 6:56 PM)
Low1 °F (Feb 22, 6:53 AM)21% (Feb 18, 12:53 PM)29.98 "Hg (Feb 19, 11:53 PM)
Average31 °F62%30.32 "Hg
* Reported Feb 12 3:53 PM — Feb 27 3:53 PM, Helena, Weather by CustomWeather, © 2015

Note: Actual official high and low records may vary slightly from our data, if they occured in-between our weather recording intervals... More about our weather records

Advertising

Helena weather history for previous 24 hours

 ConditionsComfort  
Time TempWeatherWind HumidityBarometerVisibility
3:53 PM
Fri, Feb 27
24 °FBroken clouds.20 mph55%30.18 "Hg10 mi
2:53 PM26 °FScattered clouds.15 mph52%30.15 "Hg10 mi
1:53 PM25 °FScattered clouds.17 mph55%30.16 "Hg10 mi
12:53 PM26 °FScattered clouds.5 mph50%30.16 "Hg10 mi
11:53 AM22 °FMostly cloudy.No wind57%30.19 "Hg10 mi
10:53 AM19 °FPassing clouds.7 mph65%30.21 "Hg10 mi
9:53 AM15 °FPartly sunny.6 mph74%30.20 "Hg10 mi
8:53 AM14 °FSunny.No wind71%30.18 "Hg10 mi
7:53 AM8 °FScattered clouds.3 mph83%30.19 "Hg10 mi
6:53 AM9 °FClear.N/A80%30.18 "HgN/A
5:53 AM10 °FFrigid.N/A76%30.17 "HgN/A
3:53 AM10 °FClear.3 mph76%30.18 "Hg10 mi
2:53 AM11 °FClear.6 mph77%30.19 "Hg10 mi
1:53 AM11 °FCold.No wind77%30.20 "Hg10 mi
12:53 AM10 °FClear.6 mph80%30.22 "Hg10 mi
11:53 PM
Thu, Feb 26
13 °FClear.5 mph74%30.23 "Hg10 mi
10:53 PM13 °FClear.7 mph77%30.25 "Hg10 mi
9:53 PM14 °FClear.7 mph77%30.27 "Hg10 mi
8:53 PM15 °FPassing clouds.3 mph77%30.29 "Hg10 mi
7:53 PM18 °FClear.No wind71%30.30 "Hg10 mi
6:53 PM19 °FClear.No wind68%30.31 "Hg10 mi
5:53 PM22 °FSunny.No wind55%30.31 "Hg10 mi
Weather by CustomWeather, © 2015

See weather overviewHow to use our weather pages